Weather in Cherkasy

Ukraine / Cherkassi District     49°26′39″N   32°03′35″E
temp.,
°C
wind,
m/s
gust,
m/s
humid.,
%
clouds,
%
prec.,
mm/h
press.,
hPa
HPBL,
m
28 february, sun
sun2823:00+2nw5998100 0.5 1020317
02:00+1nnw51097100 0.9 1021447
05:00+2nnw5998100 0.4 1021358
08:00+1nw5897100 0.5 1023402
11:00+1nw5887100 0.3 1023571
14:00+2nw5880100 0.4 1023699
17:00+2wnw3778100 0.1 1022613
20:00+1wnw3784100 0.1 1022250
1 march, mon
mon123:000wnw2498100 0.3 1022157
02:00+1n2298100 0.4 1023112
05:000nne2495100 0.0 1024148
08:00+1nne358894 0.0 1027293
11:00+2n467766 0.0 1029601
14:00+2n357683 0.1 1030532
17:00+2nnw4686100 0.1 1030377
20:00+1nw2590100 0.1 1032215
2 march, tue
tue223:00+1wnw2391100 0.1 103189
02:00+2w4684100 0.1 1031191
05:00+1w498881 0.0 1028232
08:00+2w6118490 0.0 1027389
11:00+5w61078100 0.0 1024444
14:00+8w7116563 0.0 1022785
17:00+7wnw612680 0.0 1019807
20:00+5nw7127724 0.0 1020698
3 march, wed
wed323:00+3nnw91381100 0.1 1021879
02:00+3nnw7147798 0.2 1022633
05:00+1nnw6138327 0.0 1023477
08:00+1nnw7118414 0.0 1026592
11:00+3nnw697222 0.0 1027622
14:00+4nnw576511 0.0 1027596
17:00+4nw35650 0.0 1026405
20:00+2w22740 0.0 102722
4 march, thu
thu423:00+1wsw34770 0.0 102642
02:000sw46780 0.0 102599
05:000sw48780 0.0 1022170
08:00+2sw611690 0.0 1020381
11:00+7wsw610610 0.0 1018635
14:00+9wsw69583 0.0 1015880
17:00+8sw511644 0.0 1013348
20:00+5sw5117913 0.0 1012218